Sanders, Before Seed, Beyond Harvest
OptiGro Location.

Weather

  • Currently

    Reported at Greenville, Greenville Municipal Airport, MS
    1:53 PM CST MON JUL 24 2017
  • 86°F30°C
  • Partly Cloudy
    Partly Cloudy
  • Feels Like:93°F34°CDew Point:73°F23°CHumidity:66% Winds:SW 8 mph 13 kph
    Pressure:29.94 in1014 hPaVisibility:10.00 miles16090.00 meters
Time Weather Temp Dew Point
Humidity Winds Visibility Pressure Precipitation
1 hr 24 hr
Monday, July 24
15:15 15:15 Sunny Sunny 87°F31°C 79°F26°C 78% CalmCalm 10.0 miles16.1 km 29.94 in1014 hPa 0.00 in0.00 mm --
14:55 14:55 Mostly Cloudy Mostly Cloudy 88°F31°C 80°F27°C 78% SSW 3 mphSSW 6 kph 10.0 miles16.1 km 29.94 in1014 hPa 0.00 in0.00 mm --
14:35 14:35 Cloudy Cloudy 87°F31°C 80°F26°C 77% CalmCalm 10.0 miles16.1 km 29.94 in1014 hPa 0.00 in0.00 mm --
14:15 14:15 Mostly Cloudy Mostly Cloudy 87°F31°C 80°F27°C 80% CalmCalm 10.0 miles16.1 km 29.94 in1014 hPa 0.00 in0.00 mm --
13:55 13:55 Mostly Cloudy Mostly Cloudy 86°F30°C 79°F26°C 79% CalmCalm 10.0 miles16.1 km 29.94 in1014 hPa 0.00 in0.00 mm --
13:35 13:35 Mostly Cloudy Mostly Cloudy 85°F30°C 80°F27°C 85% CalmCalm 10.0 miles16.1 km 29.97 in1015 hPa 0.00 in0.00 mm --
13:15 13:15 Partly Cloudy Partly Cloudy 85°F29°C 79°F26°C 84% CalmCalm 10.0 miles16.1 km 29.97 in1015 hPa 0.00 in0.00 mm --
12:55 12:55 Partly Cloudy Partly Cloudy 85°F30°C 79°F26°C 82% CalmCalm 10.0 miles16.1 km 29.97 in1015 hPa 0.00 in0.00 mm --
12:35 12:35 Cloudy Cloudy 85°F29°C 79°F26°C 84% CalmCalm 7.0 miles11.3 km 29.97 in1015 hPa 0.00 in0.00 mm --
12:15 12:15 Cloudy Cloudy 83°F28°C 80°F27°C 93% SW 5 mphSW 7 kph 10.0 miles16.1 km 29.97 in1015 hPa 0.00 in0.00 mm --
11:55 11:55 Cloudy Cloudy 82°F28°C 80°F27°C 93% W 5 mphW 7 kph 10.0 miles16.1 km 29.97 in1015 hPa 0.00 in0.00 mm --
11:35 11:35 Cloudy With Mist And Fog Cloudy With Mist And Fog 82°F28°C 80°F26°C 93% SW 5 mphSW 7 kph 5.0 miles8.0 km 29.97 in1015 hPa 0.00 in0.00 mm --
11:15 11:15 Cloudy Cloudy 81°F27°C 79°F26°C 96% SSW 3 mphSSW 6 kph 10.0 miles16.1 km 29.97 in1015 hPa 0.00 in0.00 mm --
10:55 10:55 Cloudy Cloudy 80°F27°C 80°F26°C 99% CalmCalm 10.0 miles16.1 km 29.97 in1015 hPa 0.00 in0.00 mm --
10:35 10:35 Cloudy Cloudy 80°F27°C 80°F26°C 99% CalmCalm 10.0 miles16.1 km 29.97 in1015 hPa 0.00 in0.00 mm --
10:15 10:15 Cloudy Cloudy 79°F26°C 79°F26°C 100% CalmCalm 10.0 miles16.1 km 29.97 in1015 hPa 0.00 in0.00 mm --
09:55 09:55 Cloudy Cloudy 78°F26°C 78°F26°C 100% CalmCalm 10.0 miles16.1 km 29.97 in1015 hPa 0.00 in0.00 mm --
09:35 09:35 Cloudy Cloudy 78°F26°C 78°F26°C 100% CalmCalm 10.0 miles16.1 km 29.97 in1015 hPa 0.00 in0.00 mm --
09:15 09:15 Cloudy Cloudy 77°F25°C 77°F25°C 100% CalmCalm 10.0 miles16.1 km 29.97 in1015 hPa 0.00 in0.00 mm --
08:55 08:55 Cloudy Cloudy 76°F24°C 76°F24°C 100% WSW 3 mphWSW 6 kph 7.0 miles11.3 km 29.97 in1015 hPa 0.00 in0.00 mm --
08:35 08:35 Cloudy Cloudy 76°F24°C 76°F24°C 100% WSW 5 mphWSW 7 kph 7.0 miles11.3 km 29.97 in1015 hPa 0.00 in0.00 mm --
08:15 08:15 Cloudy With Mist And Fog Cloudy With Mist And Fog 76°F24°C 76°F24°C 100% SW 6 mphSW 9 kph 5.0 miles8.0 km 29.97 in1015 hPa 0.00 in0.00 mm --
07:55 07:55 Cloudy With Mist And Fog Cloudy With Mist And Fog 76°F24°C 76°F24°C 100% S 5 mphS 7 kph 5.0 miles8.0 km 29.97 in1015 hPa 0.00 in0.00 mm --
07:35 07:35 Cloudy With Mist And Fog Cloudy With Mist And Fog 76°F24°C 76°F24°C 100% SSW 6 mphSSW 9 kph 4.0 miles6.4 km 29.94 in1014 hPa 0.00 in0.00 mm --
07:15 07:15 Cloudy With Mist And Fog Cloudy With Mist And Fog 75°F24°C 75°F24°C 100% SSW 5 mphSSW 7 kph 4.0 miles6.4 km 29.94 in1014 hPa 0.00 in0.00 mm --
06:55 06:55 Cloudy With Mist And Fog Cloudy With Mist And Fog 75°F24°C 75°F24°C 100% SW 3 mphSW 6 kph 4.0 miles6.4 km 29.94 in1014 hPa 0.00 in0.00 mm --
06:35 06:35 Cloudy With Mist And Fog Cloudy With Mist And Fog 75°F24°C 75°F24°C 100% SW 6 mphSW 9 kph 5.0 miles8.0 km 29.94 in1014 hPa 0.00 in0.00 mm --
06:15 06:15 Cloudy Cloudy 75°F24°C 75°F24°C 100% SW 3 mphSW 6 kph 7.0 miles11.3 km 29.94 in1014 hPa 0.00 in0.00 mm --
05:55 05:55 Cloudy Cloudy 75°F24°C 75°F24°C 100% CalmCalm 7.0 miles11.3 km 29.94 in1014 hPa 0.00 in0.00 mm --
05:35 05:35 Cloudy Cloudy 75°F24°C 75°F24°C 100% WSW 7 mphWSW 11 kph 7.0 miles11.3 km 29.91 in1013 hPa 0.00 in0.00 mm --
05:15 05:15 Cloudy Cloudy 75°F24°C 75°F24°C 100% SSW 5 mphSSW 7 kph 10.0 miles16.1 km 29.91 in1013 hPa 0.00 in0.00 mm --
04:55 04:55 Cloudy Cloudy 75°F24°C 75°F24°C 100% SSW 6 mphSSW 9 kph 7.0 miles11.3 km 29.91 in1013 hPa 0.00 in0.00 mm --
04:35 04:35 Cloudy Cloudy 75°F24°C 75°F24°C 100% SSW 6 mphSSW 9 kph 7.0 miles11.3 km 29.91 in1013 hPa 0.00 in0.00 mm --
04:15 04:15 Cloudy Cloudy 75°F24°C 75°F24°C 100% SSW 6 mphSSW 9 kph 7.0 miles11.3 km 29.88 in1012 hPa 0.00 in0.00 mm --
03:55 03:55 Cloudy Cloudy 75°F24°C 75°F24°C 100% S 6 mphS 9 kph 7.0 miles11.3 km 29.88 in1012 hPa 0.00 in0.00 mm --
03:35 03:35 Cloudy Cloudy 75°F24°C 75°F24°C 100% SSW 6 mphSSW 9 kph 7.0 miles11.3 km 29.88 in1012 hPa 0.00 in0.00 mm --
03:15 03:15 Cloudy Cloudy 75°F24°C 75°F24°C 100% S 7 mphS 11 kph 10.0 miles16.1 km 29.88 in1012 hPa 0.00 in0.00 mm --
02:55 02:55 Mostly Cloudy Mostly Cloudy 74°F24°C 74°F24°C 100% S 7 mphS 11 kph 10.0 miles16.1 km 29.88 in1012 hPa 0.00 in0.00 mm --
02:35 02:35 Clear Clear 75°F24°C 75°F24°C 100% S 6 mphS 9 kph 7.0 miles11.3 km 29.88 in1012 hPa 0.00 in0.00 mm --
02:15 02:15 Clear Clear 75°F24°C 75°F24°C 100% CalmCalm 10.0 miles16.1 km 29.88 in1012 hPa 0.00 in0.00 mm --
01:55 01:55 Clear Clear 75°F24°C 75°F24°C 100% SSW 6 mphSSW 9 kph 10.0 miles16.1 km 29.88 in1012 hPa 0.00 in0.00 mm --
01:35 01:35 Clear Clear 75°F24°C 75°F24°C 100% SSW 5 mphSSW 7 kph 10.0 miles16.1 km 29.88 in1012 hPa 0.00 in0.00 mm --
01:15 01:15 Clear Clear 75°F24°C 75°F24°C 100% SSW 5 mphSSW 7 kph 10.0 miles16.1 km 29.88 in1012 hPa 0.00 in0.00 mm --
00:55 00:55 Clear Clear 75°F24°C 75°F24°C 100% SSW 6 mphSSW 9 kph 10.0 miles16.1 km 29.91 in1013 hPa 0.00 in0.00 mm --
00:35 00:35 Clear Clear 75°F24°C 75°F24°C 100% S 3 mphS 6 kph 10.0 miles16.1 km 29.91 in1013 hPa 0.00 in0.00 mm --
00:15 00:15 Partly Cloudy Partly Cloudy 75°F24°C 75°F24°C 100% WSW 3 mphWSW 6 kph 7.0 miles11.3 km 29.91 in1013 hPa 0.00 in0.00 mm --